Watts Bar Observed Data For Previous 48 Hours

Caption
Day and Hour Reservoir Elevation (behind dam)* Tailwater Elevation (below dam)* Average Hourly Discharge*
11/18/2018 2 AM EST 740.09 683.70 63,463
11/18/2018 3 AM EST 740.08 683.71 63,456
11/18/2018 4 AM EST 740.07 683.70 63,433
11/18/2018 5 AM EST 740.07 683.69 63,430
11/18/2018 6 AM EST 740.05 683.65 63,447
11/18/2018 7 AM EST 740.01 683.65 63,392
11/18/2018 8 AM EST 740.00 683.62 63,367
11/18/2018 9 AM EST 739.98 683.62 63,391
11/18/2018 10 AM EST 739.99 683.57 63,407
11/18/2018 11 AM EST 740.01 683.59 63,383
11/18/2018 12 PM EST 740.00 683.55 63,406
11/18/2018 1 PM EST 739.98 683.56 63,361
11/18/2018 2 PM EST 739.97 683.54 63,343
11/18/2018 3 PM EST 739.95 683.51 63,337
11/18/2018 4 PM EST 739.94 683.51 63,378
11/18/2018 5 PM EST 739.95 683.48 63,308
11/18/2018 6 PM EST 739.95 683.47 63,276
11/18/2018 7 PM EST 739.95 683.46 63,201
11/18/2018 8 PM EST 739.95 683.46 63,169
11/18/2018 9 PM EST 739.94 683.42 63,139
11/18/2018 10 PM EST 739.94 683.40 63,091
11/18/2018 11 PM EST 739.91 683.38 63,090
11/19/2018 12 AM EST 739.88 683.36 63,041
11/19/2018 1 AM EST 739.89 683.36 63,034
11/19/2018 2 AM EST 739.89 683.35 63,053
11/19/2018 3 AM EST 739.86 683.32 63,037
11/19/2018 4 AM EST 739.83 683.30 62,997
11/19/2018 5 AM EST 739.81 683.29 62,981
11/19/2018 6 AM EST 739.82 683.27 62,980
11/19/2018 7 AM EST 739.83 683.26 62,992
11/19/2018 8 AM EST 739.82 683.23 62,946
11/19/2018 9 AM EST 739.81 683.22 62,969
11/19/2018 10 AM EST 739.80 683.20 62,889
11/19/2018 11 AM EST 739.79 683.21 62,852
11/19/2018 12 PM EST 739.79 683.17 62,849
11/19/2018 1 PM EST 739.78 683.14 62,844
11/19/2018 2 PM EST 739.76 683.19 62,803
11/19/2018 3 PM EST 739.73 683.17 62,788
11/19/2018 4 PM EST 739.70 683.19 62,783
11/19/2018 5 PM EST 739.69 683.18 62,774
11/19/2018 6 PM EST 739.68 683.15 62,821
11/19/2018 7 PM EST 739.66 683.10 62,749
11/19/2018 8 PM EST 739.65 683.10 62,730
11/19/2018 9 PM EST 739.65 683.08 62,737
11/19/2018 10 PM EST 739.62 683.06 62,743
11/19/2018 11 PM EST 739.63 683.05 62,729
11/20/2018 12 AM EST 739.62 683.03 62,730
11/20/2018 1 AM EST 739.58 682.99 62,702
11/20/2018 2 AM EST 739.58 682.98 62,712
11/20/2018 3 AM EST 739.55 682.97 62,709
11/20/2018 4 AM EST 739.50 682.96 62,654
11/20/2018 5 AM EST 739.49 682.96 62,615
11/20/2018 6 AM EST 739.50 682.92 62,611
11/20/2018 7 AM EST 739.48 682.90 62,638

Elevations are in feet above sea level. Discharges are in cubic feet per second and are reported at the end of the hour.